White Plains, CT

7:00 PM EDT on October 16, 2017 (GMT -0400)
Westchester County

Weather History for KHPN - August, 2013

Change the Weather History Date:

Sunday, August 25, 2013

  Actual Average Record
Temperature  
Mean Temperature 69 °F -  
Max Temperature 81 °F 77 °F 92 °F (1993)
Min Temperature 57 °F 60 °F 49 °F (1987)
Cooling Degree Days 4    
Growing Degree Days 19 (Base 50)    
Moisture  
Dew Point 54 °F    
Average Humidity 62    
Maximum Humidity 97    
Minimum Humidity 30    
Precipitation  
Precipitation 0.01 in - - ()
Sea Level Pressure  
Sea Level Pressure 30.31 in    
Wind  
Wind Speed 3 mph (WNW)    
Max Wind Speed 8 mph    
Max Gust Speed 16 mph    
Visibility 10 miles    
Events      
Averages and records for this station are not official NWS values.
T = Trace of Precipitation, MM = Missing Value Source: NWS Daily Summary

Daily Weather History Graph

Daily Weather History Graph

Search for Another Location

Airport or City:

Trip Planner

Search our weather history database for the weather conditions in past years. The results will help you decide how hot, cold, wet, or windy it might be!

Date:

Astronomy

Aug. 25, 2013 Rise Set
Actual Time 6:14 AM EDT 7:38 PM EDT
Civil Twilight 5:45 AM EDT 8:06 PM EDT
Nautical Twilight 5:11 AM EDT 8:41 PM EDT
Astronomical Twilight 4:34 AM EDT 9:17 PM EDT
Moon 10:04 PM EDT (8/25) 11:17 AM EDT (8/25)
Length of Visible Light 14h 20m
Length of Day
13h 23m
Waning Gibbous, 76% of the Moon is Illuminated
Aug 25
Waning Gibbous
Aug 28
Last Quarter
Sep 5
New
Sep 12
First Quarter
Sep 19
Full

Hourly Weather History & Observations

Time (EDT) Temp. Dew Point Humidity Pressure Visibility Wind Dir Wind Speed Gust Speed Precip Events Conditions
12:56 AM 61.0 °F 57.0 °F 87% 30.34 in 10.0 mi Calm Calm - N/A   Clear
1:56 AM 61.0 °F 57.0 °F 87% 30.33 in 10.0 mi Calm Calm - N/A   Clear
2:56 AM 59.0 °F 57.0 °F 93% 30.32 in 10.0 mi Calm Calm - N/A   Clear
3:56 AM 57.9 °F 55.9 °F 93% 30.33 in 8.0 mi Calm Calm - N/A   Clear
4:56 AM 57.9 °F 55.0 °F 90% 30.34 in 10.0 mi WNW 3.5 mph - N/A   Clear
5:56 AM 57.9 °F 57.0 °F 97% 30.35 in 8.0 mi WNW 4.6 mph - N/A   Clear
6:56 AM 59.0 °F 55.9 °F 90% 30.37 in 10.0 mi NW 4.6 mph - 0.01 in   Clear
7:56 AM 64.0 °F 59.0 °F 84% 30.38 in 10.0 mi NW 3.5 mph - N/A   Clear
8:56 AM 68.0 °F 57.9 °F 70% 30.39 in 10.0 mi NW 5.8 mph - N/A   Clear
9:56 AM 71.1 °F 55.0 °F 57% 30.39 in 10.0 mi West 5.8 mph - N/A   Clear
10:56 AM 73.9 °F 54.0 °F 50% 30.38 in 10.0 mi NW 4.6 mph - N/A   Clear
11:56 AM 77.0 °F 48.9 °F 37% 30.36 in 10.0 mi NW 4.6 mph - N/A   Clear
12:56 PM 78.1 °F 50.0 °F 37% 30.33 in 10.0 mi NNW 4.6 mph - N/A   Clear
1:56 PM 79.0 °F 48.9 °F 35% 30.32 in 10.0 mi Calm Calm - N/A   Clear
2:56 PM 80.1 °F 50.0 °F 35% 30.30 in 10.0 mi Variable 6.9 mph - N/A   Clear
3:56 PM 81.0 °F 48.9 °F 33% 30.29 in 10.0 mi Variable 5.8 mph - N/A   Clear
4:56 PM 81.0 °F 46.9 °F 30% 30.27 in 10.0 mi West 8.1 mph 16.1 mph N/A   Clear
5:56 PM 79.0 °F 50.0 °F 36% 30.25 in 10.0 mi West 6.9 mph - N/A   Clear
6:56 PM 75.0 °F 52.0 °F 44% 30.23 in 10.0 mi West 4.6 mph - N/A   Clear
7:56 PM 70.0 °F 53.1 °F 55% 30.24 in 10.0 mi South 4.6 mph - N/A   Clear
8:56 PM 69.1 °F 54.0 °F 58% 30.24 in 10.0 mi South 3.5 mph - N/A   Clear
9:56 PM 66.0 °F 55.0 °F 68% 30.24 in 10.0 mi South 3.5 mph - N/A   Clear
10:56 PM 66.9 °F 55.0 °F 66% 30.23 in 10.0 mi Calm Calm - N/A   Clear
11:56 PM 68.0 °F 53.1 °F 59% 30.22 in 10.0 mi Calm Calm - N/A   Clear